TimeEDT,TemperatureF,Dew PointF,Humidity,Sea Level PressureIn,VisibilityMPH,Wind Direction,Wind SpeedMPH,Gust SpeedMPH,PrecipitationIn,Events,Conditions,WindDirDegrees,DateUTC
12:14 AM,27.5,23.0,83,30.13,10.0,West,3.5,-,N/A,,Clear,260,2013-03-15 04:14:00
12:33 AM,29.8,21.7,72,30.13,10.0,West,4.6,-,N/A,,Clear,270,2013-03-15 04:33:00
12:54 AM,28.8,22.6,78,30.13,10.0,Calm,Calm,-,N/A,,Clear,0,2013-03-15 04:54:00
1:14 AM,28.8,23.0,79,30.12,10.0,Calm,Calm,-,N/A,,Clear,0,2013-03-15 05:14:00
1:34 AM,28.4,23.9,83,30.11,10.0,SSW,3.5,-,N/A,,Clear,210,2013-03-15 05:34:00
1:54 AM,28.6,23.4,81,30.11,10.0,SW,3.5,-,N/A,,Clear,230,2013-03-15 05:54:00
2:14 AM,28.4,23.4,81,30.11,10.0,Calm,Calm,-,N/A,,Clear,0,2013-03-15 06:14:00
2:34 AM,28.4,24.3,84,30.11,10.0,Calm,Calm,-,N/A,,Clear,0,2013-03-15 06:34:00
2:54 AM,29.5,24.3,81,30.10,10.0,WSW,3.5,-,N/A,,Mostly Cloudy,240,2013-03-15 06:54:00
3:14 AM,30.2,23.0,75,30.09,10.0,SW,6.9,-,N/A,,Mostly Cloudy,220,2013-03-15 07:14:00
3:34 AM,30.6,23.4,75,30.08,10.0,SW,4.6,-,N/A,,Mostly Cloudy,230,2013-03-15 07:34:00
3:54 AM,31.1,24.4,76,30.07,10.0,SW,4.6,-,N/A,,Overcast,230,2013-03-15 07:54:00
4:14 AM,32.0,23.9,72,30.07,10.0,West,4.6,-,N/A,,Overcast,260,2013-03-15 08:14:00
4:34 AM,32.0,24.4,74,30.06,10.0,WSW,5.8,-,N/A,,Overcast,250,2013-03-15 08:34:00
4:54 AM,31.5,24.3,75,30.05,10.0,WSW,6.9,-,N/A,,Scattered Clouds,250,2013-03-15 08:54:00
5:14 AM,31.5,25.3,78,30.05,10.0,WSW,6.9,-,N/A,,Clear,250,2013-03-15 09:14:00
5:34 AM,31.1,25.7,80,30.04,10.0,WSW,6.9,-,N/A,,Clear,240,2013-03-15 09:34:00
5:54 AM,31.6,26.4,81,30.04,10.0,WSW,9.2,-,N/A,,Mostly Cloudy,250,2013-03-15 09:54:00
6:14 AM,31.1,26.6,83,30.03,10.0,WSW,10.4,-,N/A,,Scattered Clouds,250,2013-03-15 10:14:00
6:34 AM,30.7,27.0,86,30.03,10.0,WSW,8.1,-,N/A,,Clear,240,2013-03-15 10:34:00
6:54 AM,30.2,26.8,87,30.02,7.0,SW,6.9,-,N/A,,Clear,230,2013-03-15 10:54:00
7:14 AM,30.2,26.8,87,30.01,7.0,SW,5.8,-,N/A,,Clear,230,2013-03-15 11:14:00
7:34 AM,29.7,26.6,88,30.01,7.0,SW,5.8,-,N/A,,Clear,230,2013-03-15 11:34:00
7:54 AM,29.7,27.1,90,30.00,5.0,SW,5.8,-,N/A,,Clear,230,2013-03-15 11:54:00
8:14 AM,29.8,27.3,90,30.00,5.0,SW,5.8,-,N/A,,Clear,220,2013-03-15 12:14:00
8:34 AM,30.6,27.9,90,29.99,5.0,SW,6.9,-,N/A,,Clear,220,2013-03-15 12:34:00
8:54 AM,31.3,28.4,89,30.00,5.0,SW,5.8,-,N/A,,Clear,230,2013-03-15 12:54:00
9:14 AM,31.6,28.6,88,30.00,7.0,SW,5.8,-,N/A,,Clear,220,2013-03-15 13:14:00
9:34 AM,32.0,29.1,89,30.00,7.0,SW,4.6,-,N/A,,Clear,220,2013-03-15 13:34:00
9:54 AM,33.1,29.7,87,30.00,10.0,SW,5.8,-,N/A,,Clear,230,2013-03-15 13:54:00
10:14 AM,34.7,30.2,84,30.00,10.0,WSW,8.1,-,N/A,,Clear,250,2013-03-15 14:14:00
10:34 AM,35.8,30.7,82,29.99,10.0,WSW,8.1,-,N/A,,Clear,240,2013-03-15 14:34:00
10:54 AM,37.0,31.5,80,29.98,10.0,WSW,8.1,-,N/A,,Clear,250,2013-03-15 14:54:00
11:14 AM,37.4,30.9,77,29.97,10.0,West,9.2,-,N/A,,Clear,260,2013-03-15 15:14:00
11:34 AM,37.8,31.5,78,29.95,10.0,West,9.2,-,N/A,,Clear,260,2013-03-15 15:34:00
11:54 AM,38.7,31.5,75,29.95,10.0,WSW,10.4,-,N/A,,Clear,240,2013-03-15 15:54:00
12:14 PM,39.9,31.8,73,29.94,10.0,West,10.4,-,N/A,,Clear,260,2013-03-15 16:14:00
12:34 PM,40.6,32.0,71,29.94,10.0,WSW,6.9,-,N/A,,Clear,250,2013-03-15 16:34:00
12:54 PM,41.7,31.8,68,29.93,10.0,SW,5.8,-,N/A,,Clear,230,2013-03-15 16:54:00
1:14 PM,41.9,31.8,67,29.94,10.0,West,8.1,-,N/A,,Clear,260,2013-03-15 17:14:00
1:34 PM,42.4,32.2,67,29.94,10.0,West,8.1,-,N/A,,Clear,260,2013-03-15 17:34:00
1:54 PM,43.2,32.7,67,29.92,10.0,West,8.1,-,N/A,,Scattered Clouds,260,2013-03-15 17:54:00
2:14 PM,43.7,32.7,65,29.91,10.0,West,9.2,-,N/A,,Scattered Clouds,280,2013-03-15 18:14:00
2:34 PM,43.9,32.7,65,29.90,10.0,WSW,5.8,-,N/A,,Scattered Clouds,240,2013-03-15 18:34:00
2:54 PM,44.6,32.9,64,29.89,10.0,West,9.2,-,N/A,,Mostly Cloudy,260,2013-03-15 18:54:00
3:14 PM,45.1,33.3,63,29.89,10.0,West,9.2,-,N/A,,Scattered Clouds,260,2013-03-15 19:14:00
3:34 PM,45.9,33.4,62,29.88,10.0,West,9.2,-,N/A,,Clear,260,2013-03-15 19:34:00
3:54 PM,46.2,33.1,60,29.87,10.0,West,11.5,-,N/A,,Clear,260,2013-03-15 19:54:00
4:13 PM,46.6,33.6,61,29.87,10.0,West,11.5,-,N/A,,Scattered Clouds,280,2013-03-15 20:13:00
4:34 PM,46.6,33.4,60,29.87,10.0,West,10.4,-,N/A,,Mostly Cloudy,280,2013-03-15 20:34:00
4:54 PM,46.4,33.4,61,29.87,10.0,West,11.5,-,N/A,,Mostly Cloudy,280,2013-03-15 20:54:00
5:13 PM,46.9,34.2,61,29.87,10.0,West,8.1,-,N/A,,Mostly Cloudy,270,2013-03-15 21:13:00
5:34 PM,46.8,33.8,61,29.87,10.0,WNW,8.1,-,N/A,,Overcast,290,2013-03-15 21:34:00
5:54 PM,46.6,33.8,61,29.88,10.0,West,10.4,-,N/A,,Mostly Cloudy,280,2013-03-15 21:54:00
6:13 PM,45.9,34.0,63,29.87,10.0,West,9.2,-,N/A,,Overcast,280,2013-03-15 22:13:00
6:34 PM,45.7,34.2,64,29.87,10.0,West,6.9,-,N/A,,Overcast,270,2013-03-15 22:34:00
6:54 PM,45.5,34.5,65,29.87,10.0,WNW,8.1,-,N/A,,Overcast,290,2013-03-15 22:54:00
7:13 PM,45.1,35.1,68,29.88,10.0,West,8.1,-,N/A,,Overcast,270,2013-03-15 23:13:00
7:34 PM,44.6,35.6,71,29.87,10.0,WSW,3.5,-,N/A,,Overcast,250,2013-03-15 23:34:00
7:54 PM,43.7,36.3,75,29.88,10.0,WSW,3.5,-,N/A,,Overcast,240,2013-03-15 23:54:00
8:13 PM,43.5,36.1,75,29.87,10.0,WSW,3.5,-,N/A,,Overcast,240,2013-03-16 00:13:00
8:34 PM,43.2,36.9,78,29.87,5.0,WSW,4.6,-,N/A,,Overcast,240,2013-03-16 00:34:00
8:54 PM,42.8,37.6,82,29.87,5.0,WSW,3.5,-,N/A,,Overcast,240,2013-03-16 00:54:00
9:13 PM,42.1,37.9,85,29.86,5.0,Calm,Calm,-,N/A,,Overcast,0,2013-03-16 01:13:00
9:34 PM,41.5,38.5,89,29.85,4.0,Calm,Calm,-,0.01,,Overcast,0,2013-03-16 01:34:00
9:54 PM,41.2,39.0,92,29.86,3.0,WSW,3.5,-,0.03,,Overcast,250,2013-03-16 01:54:00
10:14 PM,41.4,39.2,92,29.86,3.0,WSW,3.5,-,0.01,,Overcast,250,2013-03-16 02:14:00
10:34 PM,41.5,39.2,91,29.86,3.0,SW,3.5,-,0.03,,Overcast,230,2013-03-16 02:34:00
10:54 PM,41.2,39.2,93,29.85,2.5,SW,5.8,-,0.05,,Overcast,220,2013-03-16 02:54:00
11:14 PM,41.2,39.2,93,29.85,3.0,SSW,5.8,-,N/A,,Overcast,210,2013-03-16 03:14:00
11:34 PM,41.4,39.4,93,29.84,4.0,SSW,4.6,-,0.01,,Overcast,210,2013-03-16 03:34:00
11:54 PM,41.2,39.2,93,29.84,2.5,SW,4.6,-,0.01,,Overcast,230,2013-03-16 03:54:00